SCP
0 0 0 0 0 0 0 0 0 0 0 0 0 0 0 0 0 0 -0 -0 -0 -0 -0 -0 0 0 0 0 0 0 0 0 0 0 0 0 0 0 0 0 0 0 0
0 0 0 0 0 0 0 0 0 0 0 0 0 0 0 0 0 0 0 0 0 0 -0 -0 -0 0 0 0 0 0 0 0 0 0 0 0 0 0 0 0 0 0 0
0 0 0 0 0 0 0 0 0 0 0 0 0 0 0 0 0 0 0 0 0 0 0 0 0 0 0 0 0 0 0 0 0 0 0 0 0 0 0 0 0 0 0
0 0 0 0 0 0 0 0 0 0 0 0 0 0 0 0 0 0 0 0 0 0 0 0 0 0 0 0 0 0 0 0 0 0 0 0 0 0 0 0 0 0 0
0 0 0 0 0 0 0 0 0 0 0 0 0 0 0 0 0 0 0 0 0 0 0 0 0 0 0 0 0 0 0 0 0 0 0 0 0 0 0 0 0 0 0
0 0 0 0 0 0 0 0 0 0 0 0 0 0 0 0 0 0 0 0 0 0 0 0 0 0 0 0 0 0 0 0 0 0 0 0 0 0 0 0 0 0 0
0 0 0 0 0 0 0 0 0 0 0 0 0 0 0 0 0 0 -0 0 0 0 0 0 0 0 0 0 0 0 0 0 0 0 0 0 0 0 0 0 0 0 0
0 0 0 0 0 0 0 0 0 0 0 0 0 0 0 0 0 0 0 0 0 0 0 0 0 0 0 0 0 0 0 0 0 0 0 0 0 0 0 0 0 0 0
0 0 0 0 0 0 0 0 0 0 0 0 0 0 0 0 0 0 0 0 0 0 0 0 0 0 0 0 0 0 0 0 0 0 0 0 0 0 0 0 0 0 0
0 0 0 0 0 0 0 0 0 0 0 0 0 0 0 0 0 0 0 0 0 0 0 0 0 0 0 0 0 0 0 0 0 0 0 0 0 0 0 0 0 0 0
0 0 0 0 0 0 0 0 0 0 0 0 0 0 0 0 0 0 0 0 0 0 0 0 0 0 0 0 0 0 0 0 0 0 0 0 0 0 0 0 0 0 0
0 0 0 0 0 0 0 0 0 0 0 0 0 0 0 0 0 0 0 0 0 0 0 0 0 0 0 0 0 0 -0 0 0 0 0 0 0 0 0 0 0 0 0
0 0 0 0 0 0 0 0 0 0 0 0 0 0 0 0 0 0 0 0 0 0 0 0 0 -0 0 0 -0 -0 -0 -0 0 0 0 0 0 0 0 0 0 0 0
0 0 0 0 0 0 0 0 0 0 0 0 0 0 0 0 0 0 0 0 0 0 0 0 0 0 0 0 -0 -0 -0 -0 -0 0 0 0 0 0 0 0 0 0 0
0 0 0 0 0 0 0 0 0 0 0 0 0 0 0 0 0 0 0 0 0 0 0 0 0 0 0 0 -0 -0 -0 -0 -0 -0 -0 -0 -0 -0 -0 0 0 0 0
0 0 0 0 0 0 0 0 0 0 0 0 0 0 0 0 0 0 0 0 0 0 0 0 0 0 0 0 0 0 -0 -0 -0 -0 -0 -0 -0 -0 -0 -0 -0 0 0
0 0 0 0 0 0 0 0 0 0 0 0 0 0 0 0 0 0 0 0 0 0 0 0 0 0 0 0 0 0 0 -0 -0 -0 0 0 -0 -0 -0 -0 -0 -0 0
0 0 0 0 0 0 0 0 0 0 0 0 0 0 0 0 0 0 0 0 0 0 0 0 0 0 0 0 0 0 0 0 0 -0 -0 -0 -0 -0 -0 0 0 0 -0
0 0 0 0 0 0 0 0 0 0 0 0 0 0 0 0 0 0 0 0 0 0 0 0 0 0 0 0 0 0 0 0 0 0 0 -0 0 -0 -0 -0 -0 0 -0
0 0 0 0 0 0 0 0 0 0 0 0 0 0 0 0 0 0 0 0 0 0 0 0 0 0 0 0 0 0 0 0 0 0 0 0 -0 -0 -0 0 0 -0 0
0 0 0 0 0 0 0 0 0 0 0 0 0 0 0 0 0 0 0 0 0 0 0 0 0 0 0 0 0 0 0 0 0 0 0 0 -0 -0 -0 0 -0 -0 -0
0 0 0 0 0 0 0 0 0 0 0 0 0 0 0 0 0 0 0 0 0 0 0 0 0 0 0 0 0 0 0 0 0 0 0 0 0 0 -0 0 0 0 0
0 0 0 0 0 0 0 0 0 0 0 0 0 0 0 0 0 0 0 0 0 0 0 0 0 0 0 0 0 0 0 0 0 0 0 0 0 0 0 0 0 0 0
0 0 0 0 0 0 0 0 0 0 0 0 0 0 0 0 0 0 0 0 0 0 0 0 0 0 0 0 0 0 0 0 0 0 0 0 0 0 0 0 0 0 0
0 0 0 0 0 0 0 0 0 0 0 0 0 0 0 0 0 0 0 0 0 0 0 0 0 0 0 0 0 0 0 0 0 0 0 0 0 0 0 0 0 0 0
0 0 0 0 0 0 0 0 0 0 0 0 0 0 0 0 0 0 0 0 0 0 0 0 0 0 0 0 0 0 0 0 0 0 0 0 0 0 0 0 0 0 0
Wind_Speed_500mb
15 3 2 7 8 17 22 15 8 8 15 20 22 29 34 36 40 48 51 53 53 54 57 54 45 42 44 37 30 31 33 32 28 33 36 33 30 38 43 48 58 61 57
13 11 7 14 9 18 13 12 11 6 11 17 28 33 38 42 43 43 44 44 49 50 49 49 45 38 31 35 34 31 29 29 24 28 26 20 18 17 35 37 33 28 34
8 6 18 27 15 12 9 7 10 13 23 30 39 43 37 36 41 43 44 43 46 50 48 45 44 40 33 28 27 30 29 30 30 25 19 13 11 11 21 21 24 28 29
15 25 21 24 17 18 14 14 19 27 38 47 46 45 41 43 36 36 39 42 46 47 48 47 47 46 36 26 28 26 26 27 31 31 25 24 26 13 17 23 18 23 31
23 12 27 27 24 21 22 27 33 41 47 46 44 43 44 40 37 37 41 48 50 49 39 46 43 44 38 26 23 24 14 8 17 17 14 12 15 20 20 25 12 22 27
26 40 41 34 32 28 29 37 44 43 36 38 41 41 40 38 41 44 49 50 52 52 46 40 40 39 40 37 30 24 22 18 7 15 9 8 6 12 14 20 25 20 17
41 40 35 31 29 31 37 42 40 34 38 45 48 46 38 36 42 50 55 53 49 50 46 43 36 39 36 34 33 24 22 15 8 6 8 8 11 13 16 19 22 17 13
44 38 31 25 27 32 35 34 32 37 44 54 57 44 42 44 48 47 49 44 47 43 41 38 37 36 32 30 29 26 23 20 15 12 9 6 5 9 13 19 17 13 14
37 35 26 23 29 35 36 32 35 42 45 52 54 46 49 50 51 53 46 47 47 45 42 35 33 30 34 32 29 30 26 22 20 16 11 7 5 3 6 10 15 13 8
41 30 26 25 27 30 29 32 37 41 48 50 45 42 47 48 49 50 55 52 50 48 43 38 30 29 28 29 29 33 34 30 25 18 11 9 8 8 5 11 9 9 17
36 30 23 21 27 30 30 33 34 42 45 41 41 45 46 47 44 50 53 56 56 49 42 37 28 27 30 37 36 40 38 39 35 29 21 15 13 12 9 11 13 16 14
31 27 25 26 29 28 31 33 39 44 38 39 41 44 47 46 48 51 51 53 60 69 67 56 37 28 29 32 37 39 46 42 49 46 37 29 20 16 14 6 9 9 6
34 29 26 26 29 28 33 35 41 42 35 42 44 47 46 46 45 45 44 48 52 56 58 58 53 43 37 37 36 36 37 40 39 44 44 40 30 24 23 19 16 24 26
29 26 25 26 25 27 31 37 40 37 39 41 42 48 52 49 47 42 38 41 43 45 50 50 53 51 45 41 40 39 36 35 35 35 34 35 35 30 30 26 17 30 43
29 27 26 25 20 26 28 35 33 29 33 41 42 40 44 46 48 48 40 35 40 41 41 44 40 39 36 34 34 38 36 33 31 30 30 31 31 33 26 28 26 13 19
29 25 25 18 18 24 28 34 26 22 28 36 42 38 42 50 47 45 46 35 43 43 40 42 38 38 44 49 36 40 41 37 32 31 28 25 23 27 28 27 21 30 26
26 25 21 19 19 20 28 32 23 18 26 32 36 37 40 42 44 41 41 45 49 49 49 47 49 48 39 37 35 39 38 41 39 35 31 28 25 24 30 23 25 20 19
26 24 24 16 15 17 27 26 21 20 22 31 37 41 47 52 49 43 36 38 39 42 52 52 49 50 47 38 37 32 29 36 36 33 33 32 30 28 21 25 20 24 27
20 21 16 11 10 17 26 20 19 16 19 27 31 36 41 44 44 43 48 41 39 46 44 52 58 56 52 49 45 33 39 39 31 32 35 30 24 20 18 21 23 23 26
23 18 11 9 12 19 28 21 22 18 18 24 29 30 35 41 39 34 44 50 46 48 49 47 50 51 49 47 46 38 33 41 42 33 30 33 29 21 19 16 19 21 25
19 13 10 12 15 17 29 23 21 20 20 18 23 27 30 37 38 34 35 37 39 41 46 46 46 47 49 47 43 47 45 36 34 42 33 29 27 24 19 19 18 20 19
18 8 16 12 10 19 25 26 21 14 15 17 20 24 28 35 33 29 31 27 33 37 44 45 49 47 48 49 50 43 49 41 36 40 32 30 28 20 16 15 16 18 13
15 12 11 4 6 12 18 26 29 15 13 12 14 20 21 25 34 32 33 38 33 34 36 41 47 48 49 51 50 48 39 38 41 36 36 34 30 37 26 25 20 19 16
15 10 4 6 2 11 18 19 22 7 9 9 9 13 15 17 25 28 25 26 29 31 35 36 40 43 45 50 54 50 42 33 33 40 40 32 33 31 34 25 26 20 17
13 9 3 4 0 6 11 15 24 4 9 7 5 6 11 14 22 25 21 23 21 24 30 35 32 38 40 44 46 47 41 36 31 32 36 37 33 36 30 27 31 24 21
7 7 6 7 8 8 15 11 17 8 8 7 8 8 15 13 16 22 19 19 17 16 25 28 31 33 33 38 41 43 36 31 26 31 36 32 25 34 38 28 25 24 28
Wind_Direction_500mb
148 129 3 257 127 60 41 78 44 31 360 348 347 345 348 339 332 330 327 325 326 328 330 329 318 296 286 289 294 290 294 293 310 297 283 286 271 261 261 260 253 259 264
173 182 235 205 107 60 110 118 96 56 12 8 349 349 342 338 336 341 345 342 338 338 343 346 345 340 320 284 280 282 287 282 304 315 299 300 290 264 250 254 268 257 268
218 203 105 81 102 97 98 82 67 36 16 1 354 356 355 350 351 351 347 351 349 348 350 354 356 355 352 346 305 289 285 291 289 300 274 263 244 259 266 257 264 263 272
96 107 82 103 106 97 90 63 33 15 7 4 11 16 22 15 10 0 356 355 349 347 351 353 356 359 8 2 346 308 291 281 288 292 275 250 252 255 283 278 269 277 270
111 90 115 114 103 81 52 30 18 14 13 15 21 16 16 23 11 8 2 357 350 347 344 350 351 359 6 359 348 352 318 300 274 288 279 280 263 253 250 279 283 295 289
107 110 99 91 77 54 30 18 7 8 18 19 17 18 14 14 9 11 5 3 358 354 352 351 352 359 5 5 359 353 340 334 273 261 275 297 277 243 262 268 279 289 294
113 108 95 77 57 35 22 10 5 15 16 15 15 13 18 18 17 12 7 360 0 358 357 8 1 6 8 8 9 13 14 5 7 325 294 290 273 277 274 276 271 268 246
106 96 83 63 40 23 15 15 24 18 15 13 13 19 23 23 17 8 7 3 5 8 13 14 13 17 21 27 14 20 28 29 33 30 353 336 296 271 278 262 270 263 225
102 94 81 52 37 26 24 32 23 24 19 15 11 20 20 20 11 9 19 22 19 14 14 16 18 16 25 26 30 35 35 34 41 42 27 360 337 315 311 283 276 254 232
108 98 85 63 41 30 30 25 24 24 11 4 11 20 20 20 22 27 28 22 18 14 12 15 16 21 29 28 31 35 35 32 36 33 28 36 33 41 15 354 337 286 227
114 100 85 63 45 41 33 33 29 12 10 24 30 28 30 29 28 29 23 22 18 11 12 11 21 27 34 39 40 34 32 38 40 37 35 36 31 34 31 357 328 318 267
102 101 84 59 45 45 36 35 21 20 37 37 35 33 37 33 29 26 31 29 27 38 36 37 38 35 32 27 37 34 37 41 42 39 35 36 30 27 35 34 24 318 300
103 103 73 56 58 46 39 28 25 29 37 46 45 41 36 35 32 31 31 31 36 36 37 39 40 40 39 48 48 41 38 39 38 34 32 30 35 39 32 41 60 125 155
99 88 73 62 65 49 38 27 35 52 58 51 45 44 42 39 36 31 30 34 36 41 40 40 46 47 53 55 49 42 38 40 40 36 35 29 37 39 47 46 87 91 113
99 93 80 72 70 49 42 32 47 61 56 50 47 44 32 29 29 31 35 42 35 37 42 41 41 48 51 47 45 44 34 29 28 37 38 36 40 42 52 58 65 110 118
111 97 86 75 67 50 33 26 56 62 55 46 40 44 41 38 35 38 37 48 41 42 46 43 37 36 37 41 41 35 34 33 33 33 36 37 30 46 52 60 72 80 98
115 100 88 92 59 49 25 32 49 68 52 45 49 44 31 32 39 48 41 57 50 52 47 42 41 38 35 32 47 45 39 42 41 38 40 40 42 57 56 63 67 84 94
110 84 100 87 52 40 24 27 56 56 57 57 48 51 47 47 48 42 42 57 44 33 47 45 39 41 42 37 41 33 41 37 34 38 35 39 65 55 48 51 91 96 98
100 88 89 58 60 28 19 26 41 55 71 61 54 47 42 43 41 39 38 42 59 54 44 55 47 47 45 41 37 37 41 37 35 38 40 40 46 50 55 70 73 108 104
112 97 86 58 30 27 15 31 38 60 74 69 52 51 43 38 43 47 50 52 67 61 54 48 47 43 42 46 42 40 37 35 41 45 41 46 49 54 58 78 84 103 105
117 87 88 87 34 23 10 38 36 52 83 68 53 51 50 46 49 51 52 59 65 60 54 47 42 43 39 35 32 39 38 39 39 40 38 49 51 51 48 54 71 92 110
137 120 80 63 30 15 11 26 19 57 90 62 56 52 52 50 48 50 43 45 51 54 52 48 42 45 39 33 33 32 36 42 37 42 38 40 45 44 61 73 58 65 102
147 118 82 49 46 11 15 28 20 79 93 65 60 49 53 47 45 42 44 43 48 49 49 44 36 35 32 29 25 29 28 35 35 42 45 52 51 47 64 70 71 68 74
147 106 124 358 35 355 20 31 9 73 85 89 64 37 32 47 37 23 18 27 35 38 41 38 33 33 30 25 25 22 22 35 38 45 45 48 53 51 57 67 72 72 81
135 84 46 4 156 5 13 17 11 98 38 54 77 23 36 26 18 19 4 2 25 25 28 33 25 20 24 22 23 21 24 28 37 51 47 53 52 46 52 54 56 68 74
118 54 89 40 12 9 3 5 31 78 41 18 24 23 10 14 9 13 23 29 29 35 39 30 23 11 22 18 26 22 17 22 37 46 49 41 52 46 46 63 58 58 60
Wind_Speed_850mb
15 3 2 7 8 17 22 15 8 8 15 20 22 29 34 36 40 48 51 53 53 54 57 54 45 42 44 37 30 31 33 32 28 33 36 33 30 38 43 48 58 61 57
13 11 7 14 9 18 13 12 11 6 11 17 28 33 38 42 43 43 44 44 49 50 49 49 45 38 31 35 34 31 29 29 24 28 26 20 18 17 35 37 33 28 34
8 6 18 27 15 12 9 7 10 13 23 30 39 43 37 36 41 43 44 43 46 50 48 45 44 40 33 28 27 30 29 30 30 25 19 13 11 11 21 21 24 28 29
15 25 21 24 17 18 14 14 19 27 38 47 46 45 41 43 36 36 39 42 46 47 48 47 47 46 36 26 28 26 26 27 31 31 25 24 26 13 17 23 18 23 31
23 12 27 27 24 21 22 27 33 41 47 46 44 43 44 40 37 37 41 48 50 49 39 46 43 44 38 26 23 24 14 8 17 17 14 12 15 20 20 25 12 22 27
26 40 41 34 32 28 29 37 44 43 36 38 41 41 40 38 41 44 49 50 52 52 46 40 40 39 40 37 30 24 22 18 7 15 9 8 6 12 14 20 25 20 17
41 40 35 31 29 31 37 42 40 34 38 45 48 46 38 36 42 50 55 53 49 50 46 43 36 39 36 34 33 24 22 15 8 6 8 8 11 13 16 19 22 17 13
44 38 31 25 27 32 35 34 32 37 44 54 57 44 42 44 48 47 49 44 47 43 41 38 37 36 32 30 29 26 23 20 15 12 9 6 5 9 13 19 17 13 14
37 35 26 23 29 35 36 32 35 42 45 52 54 46 49 50 51 53 46 47 47 45 42 35 33 30 34 32 29 30 26 22 20 16 11 7 5 3 6 10 15 13 8
41 30 26 25 27 30 29 32 37 41 48 50 45 42 47 48 49 50 55 52 50 48 43 38 30 29 28 29 29 33 34 30 25 18 11 9 8 8 5 11 9 9 17
36 30 23 21 27 30 30 33 34 42 45 41 41 45 46 47 44 50 53 56 56 49 42 37 28 27 30 37 36 40 38 39 35 29 21 15 13 12 9 11 13 16 14
31 27 25 26 29 28 31 33 39 44 38 39 41 44 47 46 48 51 51 53 60 69 67 56 37 28 29 32 37 39 46 42 49 46 37 29 20 16 14 6 9 9 6
34 29 26 26 29 28 33 35 41 42 35 42 44 47 46 46 45 45 44 48 52 56 58 58 53 43 37 37 36 36 37 40 39 44 44 40 30 24 23 19 16 24 26
29 26 25 26 25 27 31 37 40 37 39 41 42 48 52 49 47 42 38 41 43 45 50 50 53 51 45 41 40 39 36 35 35 35 34 35 35 30 30 26 17 30 43
29 27 26 25 20 26 28 35 33 29 33 41 42 40 44 46 48 48 40 35 40 41 41 44 40 39 36 34 34 38 36 33 31 30 30 31 31 33 26 28 26 13 19
29 25 25 18 18 24 28 34 26 22 28 36 42 38 42 50 47 45 46 35 43 43 40 42 38 38 44 49 36 40 41 37 32 31 28 25 23 27 28 27 21 30 26
26 25 21 19 19 20 28 32 23 18 26 32 36 37 40 42 44 41 41 45 49 49 49 47 49 48 39 37 35 39 38 41 39 35 31 28 25 24 30 23 25 20 19
26 24 24 16 15 17 27 26 21 20 22 31 37 41 47 52 49 43 36 38 39 42 52 52 49 50 47 38 37 32 29 36 36 33 33 32 30 28 21 25 20 24 27
20 21 16 11 10 17 26 20 19 16 19 27 31 36 41 44 44 43 48 41 39 46 44 52 58 56 52 49 45 33 39 39 31 32 35 30 24 20 18 21 23 23 26
23 18 11 9 12 19 28 21 22 18 18 24 29 30 35 41 39 34 44 50 46 48 49 47 50 51 49 47 46 38 33 41 42 33 30 33 29 21 19 16 19 21 25
19 13 10 12 15 17 29 23 21 20 20 18 23 27 30 37 38 34 35 37 39 41 46 46 46 47 49 47 43 47 45 36 34 42 33 29 27 24 19 19 18 20 19
18 8 16 12 10 19 25 26 21 14 15 17 20 24 28 35 33 29 31 27 33 37 44 45 49 47 48 49 50 43 49 41 36 40 32 30 28 20 16 15 16 18 13
15 12 11 4 6 12 18 26 29 15 13 12 14 20 21 25 34 32 33 38 33 34 36 41 47 48 49 51 50 48 39 38 41 36 36 34 30 37 26 25 20 19 16
15 10 4 6 2 11 18 19 22 7 9 9 9 13 15 17 25 28 25 26 29 31 35 36 40 43 45 50 54 50 42 33 33 40 40 32 33 31 34 25 26 20 17
13 9 3 4 0 6 11 15 24 4 9 7 5 6 11 14 22 25 21 23 21 24 30 35 32 38 40 44 46 47 41 36 31 32 36 37 33 36 30 27 31 24 21
7 7 6 7 8 8 15 11 17 8 8 7 8 8 15 13 16 22 19 19 17 16 25 28 31 33 33 38 41 43 36 31 26 31 36 32 25 34 38 28 25 24 28
Wind_Direction_850mb
148 129 3 257 127 60 41 78 44 31 360 348 347 345 348 339 332 330 327 325 326 328 330 329 318 296 286 289 294 290 294 293 310 297 283 286 271 261 261 260 253 259 264
173 182 235 205 107 60 110 118 96 56 12 8 349 349 342 338 336 341 345 342 338 338 343 346 345 340 320 284 280 282 287 282 304 315 299 300 290 264 250 254 268 257 268
218 203 105 81 102 97 98 82 67 36 16 1 354 356 355 350 351 351 347 351 349 348 350 354 356 355 352 346 305 289 285 291 289 300 274 263 244 259 266 257 264 263 272
96 107 82 103 106 97 90 63 33 15 7 4 11 16 22 15 10 0 356 355 349 347 351 353 356 359 8 2 346 308 291 281 288 292 275 250 252 255 283 278 269 277 270
111 90 115 114 103 81 52 30 18 14 13 15 21 16 16 23 11 8 2 357 350 347 344 350 351 359 6 359 348 352 318 300 274 288 279 280 263 253 250 279 283 295 289
107 110 99 91 77 54 30 18 7 8 18 19 17 18 14 14 9 11 5 3 358 354 352 351 352 359 5 5 359 353 340 334 273 261 275 297 277 243 262 268 279 289 294
113 108 95 77 57 35 22 10 5 15 16 15 15 13 18 18 17 12 7 360 0 358 357 8 1 6 8 8 9 13 14 5 7 325 294 290 273 277 274 276 271 268 246
106 96 83 63 40 23 15 15 24 18 15 13 13 19 23 23 17 8 7 3 5 8 13 14 13 17 21 27 14 20 28 29 33 30 353 336 296 271 278 262 270 263 225
102 94 81 52 37 26 24 32 23 24 19 15 11 20 20 20 11 9 19 22 19 14 14 16 18 16 25 26 30 35 35 34 41 42 27 360 337 315 311 283 276 254 232
108 98 85 63 41 30 30 25 24 24 11 4 11 20 20 20 22 27 28 22 18 14 12 15 16 21 29 28 31 35 35 32 36 33 28 36 33 41 15 354 337 286 227
114 100 85 63 45 41 33 33 29 12 10 24 30 28 30 29 28 29 23 22 18 11 12 11 21 27 34 39 40 34 32 38 40 37 35 36 31 34 31 357 328 318 267
102 101 84 59 45 45 36 35 21 20 37 37 35 33 37 33 29 26 31 29 27 38 36 37 38 35 32 27 37 34 37 41 42 39 35 36 30 27 35 34 24 318 300
103 103 73 56 58 46 39 28 25 29 37 46 45 41 36 35 32 31 31 31 36 36 37 39 40 40 39 48 48 41 38 39 38 34 32 30 35 39 32 41 60 125 155
99 88 73 62 65 49 38 27 35 52 58 51 45 44 42 39 36 31 30 34 36 41 40 40 46 47 53 55 49 42 38 40 40 36 35 29 37 39 47 46 87 91 113
99 93 80 72 70 49 42 32 47 61 56 50 47 44 32 29 29 31 35 42 35 37 42 41 41 48 51 47 45 44 34 29 28 37 38 36 40 42 52 58 65 110 118
111 97 86 75 67 50 33 26 56 62 55 46 40 44 41 38 35 38 37 48 41 42 46 43 37 36 37 41 41 35 34 33 33 33 36 37 30 46 52 60 72 80 98
115 100 88 92 59 49 25 32 49 68 52 45 49 44 31 32 39 48 41 57 50 52 47 42 41 38 35 32 47 45 39 42 41 38 40 40 42 57 56 63 67 84 94
110 84 100 87 52 40 24 27 56 56 57 57 48 51 47 47 48 42 42 57 44 33 47 45 39 41 42 37 41 33 41 37 34 38 35 39 65 55 48 51 91 96 98
100 88 89 58 60 28 19 26 41 55 71 61 54 47 42 43 41 39 38 42 59 54 44 55 47 47 45 41 37 37 41 37 35 38 40 40 46 50 55 70 73 108 104
112 97 86 58 30 27 15 31 38 60 74 69 52 51 43 38 43 47 50 52 67 61 54 48 47 43 42 46 42 40 37 35 41 45 41 46 49 54 58 78 84 103 105
117 87 88 87 34 23 10 38 36 52 83 68 53 51 50 46 49 51 52 59 65 60 54 47 42 43 39 35 32 39 38 39 39 40 38 49 51 51 48 54 71 92 110
137 120 80 63 30 15 11 26 19 57 90 62 56 52 52 50 48 50 43 45 51 54 52 48 42 45 39 33 33 32 36 42 37 42 38 40 45 44 61 73 58 65 102
147 118 82 49 46 11 15 28 20 79 93 65 60 49 53 47 45 42 44 43 48 49 49 44 36 35 32 29 25 29 28 35 35 42 45 52 51 47 64 70 71 68 74
147 106 124 358 35 355 20 31 9 73 85 89 64 37 32 47 37 23 18 27 35 38 41 38 33 33 30 25 25 22 22 35 38 45 45 48 53 51 57 67 72 72 81
135 84 46 4 156 5 13 17 11 98 38 54 77 23 36 26 18 19 4 2 25 25 28 33 25 20 24 22 23 21 24 28 37 51 47 53 52 46 52 54 56 68 74
118 54 89 40 12 9 3 5 31 78 41 18 24 23 10 14 9 13 23 29 29 35 39 30 23 11 22 18 26 22 17 22 37 46 49 41 52 46 46 63 58 58 60